• In Uzbekistan
  • List of Countries
  • For 7 days
  • Water Temperature
  • Satellite Maps
  • Weather Map
  • Weather Widgets
  • user-avatar
    Login

    Hourly Weather Chominszczyzna

    Today, 18 February, Monday

    Time Temperature Precipitation Wind Pressure Humidity
    00:00 +4°C° 0 mm 2 mps 753 mmHg 90%
    01:00 +4°C° 0 mm 2 mps 754 mmHg 91%
    02:00 +3°C° 0 mm 2 mps 754 mmHg 92%
    03:00 +3°C° 0 mm 2 mps 754 mmHg 93%
    04:00 +4°C° 0 mm 1 mps 754 mmHg 94%
    05:00 +4°C° 0 mm 1 mps 754 mmHg 95%
    06:00 +4°C° 0 mm 1 mps 754 mmHg 95%
    07:00 +4°C° 0 mm 1 mps 754 mmHg 95%
    08:00 +3°C° 0 mm 0 mps 754 mmHg 95%
    09:00 +3°C° 0 mm 0 mps 754 mmHg 93%
    10:00 +4°C° 0 mm 0 mps 754 mmHg 90%
    11:00 +5°C° 0 mm 0 mps 754 mmHg 87%
    12:00 +5°C° 0.1 mm 0 mps 754 mmHg 83%
    13:00 +7°C° 0.1 mm 1 mps 754 mmHg 80%
    14:00 +7°C° 0.1 mm 1 mps 754 mmHg 76%
    15:00 +7°C° 0 mm 1 mps 754 mmHg 76%
    16:00 +7°C° 0 mm 1 mps 754 mmHg 77%
    17:00 +7°C° 0 mm 1 mps 753 mmHg 78%
    18:00 +5°C° 0 mm 2 mps 753 mmHg 82%
    19:00 +4°C° 0 mm 2 mps 753 mmHg 86%
    20:00 +3°C° 0 mm 2 mps 753 mmHg 90%
    21:00 +3°C° 0 mm 2 mps 753 mmHg 91%
    22:00 +2°C° 0 mm 2 mps 753 mmHg 91%
    23:00 +1°C° 0 mm 3 mps 752 mmHg 92%

    Tomorrow, 19 February, Tuesday

    Time Temperature Precipitation Wind Pressure Humidity
    00:00 +1°C° 0 mm 3 mps 752 mmHg 92%
    01:00 +1°C° 0 mm 3 mps 752 mmHg 92%
    02:00 +1°C° 0 mm 3 mps 752 mmHg 92%
    03:00 +1°C° 0 mm 3 mps 751 mmHg 92%
    04:00 +1°C° 0 mm 3 mps 751 mmHg 92%
    05:00 +1°C° 0 mm 3 mps 750 mmHg 93%
    06:00 -1°C° 0 mm 4 mps 750 mmHg 93%
    07:00 -1°C° 0 mm 4 mps 750 mmHg 94%
    08:00 -1°C° 0 mm 4 mps 749 mmHg 94%
    09:00 0°C° 0 mm 4 mps 749 mmHg 89%
    10:00 +1°C° 0 mm 4 mps 748 mmHg 83%
    11:00 +4°C° 0 mm 4 mps 748 mmHg 77%
    12:00 +5°C° 0 mm 5 mps 748 mmHg 71%
    13:00 +6°C° 0 mm 5 mps 747 mmHg 66%
    14:00 +7°C° 0 mm 5 mps 747 mmHg 60%
    15:00 +7°C° 0 mm 5 mps 746 mmHg 60%
    16:00 +7°C° 0 mm 4 mps 746 mmHg 61%
    17:00 +7°C° 0 mm 4 mps 745 mmHg 61%
    18:00 +6°C° 0 mm 4 mps 745 mmHg 64%
    19:00 +5°C° 0 mm 4 mps 745 mmHg 67%
    20:00 +4°C° 0 mm 4 mps 745 mmHg 70%
    21:00 +4°C° 0 mm 4 mps 745 mmHg 73%
    22:00 +4°C° 0 mm 4 mps 745 mmHg 75%
    23:00 +3°C° 0 mm 4 mps 745 mmHg 78%

    Day after tomorrow, 20 February, Wednesday

    Time Temperature Precipitation Wind Pressure Humidity
    00:00 +4°C° 0.3 mm 4 mps 745 mmHg 82%
    01:00 +4°C° 0.3 mm 4 mps 745 mmHg 86%
    02:00 +4°C° 0.3 mm 4 mps 745 mmHg 91%
    03:00 +3°C° 0.1 mm 4 mps 745 mmHg 91%
    04:00 +3°C° 0.1 mm 4 mps 745 mmHg 92%
    05:00 +2°C° 0.1 mm 3 mps 745 mmHg 92%
    06:00 +1°C° 0 mm 4 mps 745 mmHg 91%
    07:00 +1°C° 0 mm 4 mps 745 mmHg 91%
    08:00 +2°C° 0 mm 5 mps 746 mmHg 90%
    09:00 +2°C° 0 mm 5 mps 746 mmHg 86%
    10:00 +2°C° 0 mm 5 mps 746 mmHg 81%
    11:00 +2°C° 0 mm 6 mps 746 mmHg 77%
    12:00 +3°C° 0 mm 6 mps 746 mmHg 75%
    13:00 +3°C° 0 mm 6 mps 746 mmHg 73%
    14:00 +3°C° 0 mm 7 mps 747 mmHg 71%
    15:00 +3°C° 0.2 mm 6 mps 747 mmHg 73%
    16:00 +3°C° 0.2 mm 6 mps 747 mmHg 75%
    17:00 +3°C° 0.2 mm 6 mps 747 mmHg 77%
    18:00 +3°C° 0.1 mm 6 mps 747 mmHg 79%
    19:00 +2°C° 0.1 mm 5 mps 748 mmHg 81%
    20:00 +2°C° 0.1 mm 5 mps 748 mmHg 83%
    21:00 +2°C° 0 mm 5 mps 748 mmHg 85%
    22:00 +1°C° 0 mm 5 mps 748 mmHg 86%
    23:00 +1°C° 0 mm 5 mps 748 mmHg 88%

    21 February, Thursday

    Time Temperature Precipitation Wind Pressure Humidity
    00:00 +1°C° 0 mm 5 mps 749 mmHg 89%
    01:00 +1°C° 0 mm 5 mps 749 mmHg 89%
    02:00 +1°C° 0 mm 5 mps 749 mmHg 90%
    03:00 +1°C° 0 mm 4 mps 749 mmHg 91%
    04:00 +1°C° 0 mm 4 mps 749 mmHg 91%
    05:00 +1°C° 0 mm 4 mps 749 mmHg 92%
    06:00 +1°C° 0.1 mm 3 mps 749 mmHg 93%
    07:00 +1°C° 0.1 mm 3 mps 749 mmHg 95%
    08:00 +2°C° 0.1 mm 2 mps 749 mmHg 96%
    09:00 +3°C° 0.3 mm 2 mps 749 mmHg 95%
    10:00 +3°C° 0.3 mm 2 mps 750 mmHg 94%
    11:00 +4°C° 0.3 mm 2 mps 750 mmHg 93%
    12:00 +4°C° 0.2 mm 2 mps 750 mmHg 92%
    13:00 +4°C° 0.2 mm 2 mps 750 mmHg 90%
    14:00 +4°C° 0.2 mm 2 mps 750 mmHg 89%
    15:00 +3°C° 0.1 mm 2 mps 750 mmHg 87%
    16:00 +3°C° 0.1 mm 2 mps 751 mmHg 86%
    17:00 +3°C° 0.1 mm 2 mps 751 mmHg 84%
    18:00 +2°C° 0 mm 2 mps 751 mmHg 78%
    19:00 +2°C° 0 mm 2 mps 752 mmHg 73%
    20:00 +1°C° 0 mm 2 mps 753 mmHg 67%
    21:00 +1°C° 0 mm 2 mps 753 mmHg 65%
    22:00 -1°C° 0 mm 2 mps 754 mmHg 63%
    23:00 -2°C° 0 mm 3 mps 754 mmHg 61%

    22 February, Friday

    Time Temperature Precipitation Wind Pressure Humidity
    00:00 -2°C° 0 mm 2 mps 755 mmHg 61%
    01:00 -2°C° 0 mm 2 mps 755 mmHg 61%
    02:00 -3°C° 0 mm 2 mps 756 mmHg 61%
    03:00 -3°C° 0 mm 2 mps 756 mmHg 60%
    04:00 -4°C° 0 mm 3 mps 757 mmHg 58%
    05:00 -4°C° 0 mm 3 mps 757 mmHg 57%
    06:00 -4°C° 0 mm 3 mps 758 mmHg 57%
    07:00 -4°C° 0 mm 3 mps 759 mmHg 57%
    08:00 -4°C° 0 mm 3 mps 759 mmHg 57%
    09:00 -4°C° 0 mm 3 mps 760 mmHg 52%
    10:00 -3°C° 0 mm 4 mps 761 mmHg 47%
    11:00 -3°C° 0 mm 4 mps 762 mmHg 43%
    12:00 -3°C° 0 mm 4 mps 762 mmHg 40%
    13:00 -2°C° 0 mm 4 mps 762 mmHg 38%
    14:00 -1°C° 0 mm 3 mps 762 mmHg 35%
    15:00 -1°C° 0 mm 3 mps 763 mmHg 36%
    16:00 -1°C° 0 mm 3 mps 763 mmHg 36%
    17:00 -2°C° 0 mm 3 mps 764 mmHg 36%
    18:00 -2°C° 0 mm 3 mps 764 mmHg 38%
    19:00 -3°C° 0 mm 2 mps 765 mmHg 41%
    20:00 -3°C° 0 mm 2 mps 765 mmHg 43%
    21:00 -4°C° 0 mm 2 mps 766 mmHg 42%
    22:00 -4°C° 0 mm 2 mps 766 mmHg 41%
    23:00 -4°C° 0 mm 2 mps 766 mmHg 40%

    23 February, Saturday

    Time Temperature Precipitation Wind Pressure Humidity
    00:00 -2°C° 0 mm 1 mps 767 mmHg 39%
    01:00 -2°C° 0 mm 1 mps 767 mmHg 39%
    02:00 -3°C° 0 mm 0 mps 767 mmHg 39%
    03:00 -3°C° 0 mm 0 mps 767 mmHg 38%
    04:00 -3°C° 0 mm 0 mps 767 mmHg 38%
    05:00 -3°C° 0 mm 0 mps 767 mmHg 38%
    06:00 -2°C° 0 mm 1 mps 767 mmHg 37%
    07:00 -2°C° 0 mm 1 mps 766 mmHg 37%
    08:00 -3°C° 0 mm 2 mps 766 mmHg 36%
    09:00 -3°C° 0 mm 2 mps 766 mmHg 38%
    10:00 -3°C° 0 mm 2 mps 766 mmHg 41%
    11:00 -2°C° 0 mm 3 mps 766 mmHg 44%
    12:00 -2°C° 0 mm 3 mps 765 mmHg 41%
    13:00 -2°C° 0 mm 4 mps 765 mmHg 39%
    14:00 -1°C° 0 mm 5 mps 764 mmHg 37%
    15:00 -1°C° 0 mm 4 mps 764 mmHg 39%
    16:00 -1°C° 0 mm 4 mps 763 mmHg 41%
    17:00 +1°C° 0 mm 3 mps 763 mmHg 44%
    18:00 +1°C° 0 mm 3 mps 762 mmHg 51%
    19:00 +1°C° 0 mm 3 mps 762 mmHg 58%
    20:00 +1°C° 0 mm 3 mps 762 mmHg 65%
    21:00 +1°C° 0 mm 3 mps 761 mmHg 74%
    22:00 +2°C° 0 mm 2 mps 761 mmHg 82%
    23:00 +1°C° 0 mm 2 mps 761 mmHg 90%
    Show more